Dallas/Ft Worth, TX

3:36 PM CST on November 24, 2017 (GMT -0600)
Dallas-Fort Worth International

Weather History for KDFW - December, 2013

Change the Weather History Date:

Sunday, December 22, 2013

  Actual Average Record
Temperature  
Mean Temperature 36 °F 46 °F  
Max Temperature 43 °F 56 °F 81 °F (1964)
Min Temperature 29 °F 36 °F 3 °F (1989)
Degree Days  
Heating Degree Days 29 19  
Month to date heating degree days 459 382  
Since 1 July heating degree days 860 736  
Cooling Degree Days 0 0  
Month to date cooling degree days 0 0  
Year to date cooling degree days 2930 2752  
Moisture  
Dew Point 29 °F    
Average Humidity 77    
Maximum Humidity 100    
Minimum Humidity 53    
Precipitation  
Precipitation T in 0.09 in 0.95 in (1937)
Month to date precipitation 2.76 1.86  
Year to date precipitation 29.40 35.45  
Snow  
Snow 0.00 in 0.00 in 2.00 in (1963)
Month to date snowfall 2.1 0.2  
Since 1 July snowfall 2.1 0.2  
Snow Depth 0.00 in    
Sea Level Pressure  
Sea Level Pressure 30.11 in    
Wind  
Wind Speed 14 mph (NNW)    
Max Wind Speed 23 mph    
Max Gust Speed 28 mph    
Visibility 9 miles    
Events      
T = Trace of Precipitation, MM = Missing Value Source: NWS Daily Summary

Daily Weather History Graph

Daily Weather History Graph

Search for Another Location

Airport or City:

Trip Planner

Search our weather history database for the weather conditions in past years. The results will help you decide how hot, cold, wet, or windy it might be!

Date:

Astronomy

Dec. 22, 2013 Rise Set
Actual Time 7:27 AM CST 5:26 PM CST
Civil Twilight 7:00 AM CST 5:53 PM CST
Nautical Twilight 6:29 AM CST 6:24 PM CST
Astronomical Twilight 5:59 AM CST 6:54 PM CST
Moon 10:25 PM CST (12/22) 10:38 AM CST (12/22)
Length of Visible Light 10h 53m
Length of Day
9h 58m
Waning Gibbous, 76% of the Moon is Illuminated
Dec 22
Waning Gibbous
Dec 25
Last Quarter
Jan 1
New
Jan 7
First Quarter
Jan 15
Full

Hourly Weather History & Observations

Time (CST) Temp. Windchill Dew Point Humidity Pressure Visibility Wind Dir Wind Speed Gust Speed Precip Events Conditions
12:45 AM 42.1 °F 34.5 °F 41.0 °F 96% 29.82 in 0.8 mi NNW 15.0 mph - N/A   Overcast
12:53 AM 41.0 °F 32.8 °F 39.9 °F 96% 29.83 in 0.8 mi NNW 16.1 mph - N/A   Overcast
1:05 AM 41.0 °F 32.8 °F 39.9 °F 96% 29.83 in 1.5 mi North 16.1 mph - N/A   Overcast
1:21 AM 39.9 °F 31.8 °F 39.0 °F 97% 29.85 in 5.0 mi NNW 15.0 mph - N/A   Overcast
1:53 AM 39.0 °F 29.9 °F 37.9 °F 96% 29.87 in 4.0 mi NNW 17.3 mph - 0.00 in   Light Drizzle
2:00 AM 39.0 °F 29.6 °F 37.0 °F 93% 29.87 in 4.0 mi NNW 18.4 mph - 0.00 in   Light Drizzle
2:53 AM 39.0 °F 32.3 °F 36.0 °F 89% 29.90 in 10.0 mi NNW 10.4 mph - 0.00 in   Mostly Cloudy
3:14 AM 39.0 °F 33.4 °F 36.0 °F 89% 29.91 in 10.0 mi NNW 8.1 mph - N/A   Mostly Cloudy
3:53 AM 39.9 °F 34.5 °F 36.0 °F 86% 29.93 in 10.0 mi NNW 8.1 mph - N/A   Overcast
4:53 AM 39.0 °F 31.4 °F 35.1 °F 86% 29.95 in 10.0 mi NNW 12.7 mph - N/A   Overcast
5:33 AM 37.9 °F 29.2 °F 32.0 °F 79% 29.97 in 10.0 mi North 15.0 mph - N/A   Overcast
5:53 AM 36.0 °F 27.5 °F 30.0 °F 79% 29.99 in 10.0 mi NNW 12.7 mph - N/A   Mostly Cloudy
6:26 AM 35.1 °F 26.9 °F 28.9 °F 78% 30.00 in 10.0 mi NNW 11.5 mph - N/A   Mostly Cloudy
6:53 AM 35.1 °F 26.4 °F 28.9 °F 78% 30.03 in 10.0 mi NNW 12.7 mph - N/A   Partly Cloudy
7:53 AM 33.1 °F 23.0 °F 26.1 °F 75% 30.07 in 10.0 mi NW 15.0 mph - N/A   Partly Cloudy
8:53 AM 33.1 °F 20.9 °F 25.0 °F 72% 30.10 in 10.0 mi NNW 21.9 mph - N/A   Scattered Clouds
9:00 AM 33.1 °F 21.5 °F 25.0 °F 72% 30.10 in 10.0 mi NNW 19.6 mph - N/A   Mostly Cloudy
9:53 AM 33.1 °F 21.5 °F 25.0 °F 72% 30.14 in 10.0 mi NNW 19.6 mph - N/A   Overcast
10:53 AM 34.0 °F 23.0 °F 26.1 °F 73% 30.17 in 10.0 mi NNW 18.4 mph - N/A   Overcast
11:53 AM 37.0 °F 28.9 °F 27.0 °F 67% 30.19 in 10.0 mi NW 12.7 mph - N/A   Mostly Cloudy
12:53 PM 39.0 °F 30.3 °F 28.0 °F 65% 30.17 in 10.0 mi NNW 16.1 mph - N/A   Mostly Cloudy
1:17 PM 39.9 °F 31.1 °F 27.0 °F 60% 30.16 in 10.0 mi NW 17.3 mph - N/A   Scattered Clouds
1:53 PM 42.1 °F 33.1 °F 28.0 °F 58% 30.17 in 10.0 mi NNW 20.7 mph - N/A   Scattered Clouds
2:53 PM 42.1 °F 34.2 °F 27.0 °F 55% 30.19 in 10.0 mi NNW 16.1 mph - N/A   Scattered Clouds
3:53 PM 42.1 °F 33.6 °F 27.0 °F 55% 30.21 in 10.0 mi NNW 18.4 mph 25.3 mph N/A   Scattered Clouds
4:53 PM 39.9 °F 31.8 °F 26.1 °F 58% 30.25 in 10.0 mi NNW 15.0 mph - N/A   Partly Cloudy
5:53 PM 37.9 °F 28.9 °F 26.1 °F 62% 30.27 in 10.0 mi North 16.1 mph - N/A   Partly Cloudy
6:53 PM 37.0 °F 29.3 °F 25.0 °F 62% 30.30 in 10.0 mi NNW 11.5 mph - N/A   Clear
7:53 PM 35.1 °F 26.9 °F 25.0 °F 67% 30.33 in 10.0 mi NNW 11.5 mph - N/A   Clear
8:53 PM 33.1 °F 24.9 °F 24.1 °F 70% 30.35 in 10.0 mi North 10.4 mph - N/A   Clear
9:53 PM 32.0 °F 24.8 °F 24.1 °F 73% 30.38 in 10.0 mi North 8.1 mph - N/A   Partly Cloudy
10:53 PM 30.9 °F 23.5 °F 24.1 °F 76% 30.40 in 10.0 mi NNW 8.1 mph - N/A   Partly Cloudy
11:53 PM 30.0 °F 21.1 °F 24.1 °F 79% 30.40 in 10.0 mi NNW 10.4 mph - N/A   Partly Cloudy